Starlink 3958

operational
NORAD ID: 52535 Int'l Des: 2022-051 Owner: SPXS Country: US Constellation: starlink
LEOCIRCULAR

Starlink 3958について

説明を読み込み中...

リアルタイム位置

3D地球を読み込み中...

次回通過

高度履歴

Altitude vs Time

uPlot chart will show altitude changes over time

軌道要素

1 52535U 22051C 25347.66424052 -.00000092 00000-0 12340-4 0 9996
2 52535 53.2153 155.3031 0001616 83.9220 276.1956 15.08845471198453
Epoch: Dec 13, 2025 • Age: 20 hours

現在のステータス

高度 556.0 km
速度 7.58 km/s
衛星直下点 -45.02°S, 114.91°E
打ち上げ日 May 13, 2022
運用期間 3.5 years
タイプ internet

技術仕様

分類 Payload
質量 297.00 kg
乾燥質量 275.00 kg
総質量 297.00 kg
長さ 0.20 m
直径 2.80 m
スパン 9.00 m
形状 Box + pan
製造者 SPXS
バスタイプ Starlink
フェーズステータス In Orbit
所有者/国 SPXS/US

大規模コンステレーション

Loading constellations...